Weather History for Wheeler AAF, HI

Change the Weather History Date:

Thursday, December 20, 2012

  Actual Average Record
Temperature  
Mean Temperature 68 °F -  
Max Temperature 71 °F 74 °F 80 °F (2002)
Min Temperature 65 °F 62 °F 60 °F (2002)
Cooling Degree Days 3    
Growing Degree Days 18 (Base 50)    
Moisture  
Dew Point 62 °F    
Average Humidity 82    
Maximum Humidity 91    
Minimum Humidity 73    
Precipitation  
Precipitation 0.16 in - - ()
Sea Level Pressure  
Sea Level Pressure 30.03 in    
Wind  
Wind Speed 6 mph (NE)    
Max Wind Speed 17 mph    
Max Gust Speed 24 mph    
Visibility 9 miles    
Events Rain    
Averages and records for this station are not official NWS values.
T = Trace of Precipitation, MM = Missing Value Source: NWS Daily Summary

Daily Weather History Graph

Daily Weather History Graph

Search for Another Location

Airport:

Trip Planner

Search our weather history database for the weather conditions in past years. The results will help you decide how hot, cold, wet, or windy it might be!

Date:

Astronomy

Dec. 20, 2012 Rise Set
Actual Time 7:05 AM HST 5:54 PM HST
Civil Twilight 6:41 AM HST 6:19 PM HST
Nautical Twilight 6:13 AM HST 6:47 PM HST
Astronomical Twilight 5:45 AM HST 7:14 PM HST
Moon 12:45 PM HST (12/20) 12:40 AM HST (12/20)
Length of Visible Light 11h 38m
Length of Day
10h 49m
First Quarter, 57% of the Moon is Illuminated
Dec 20
First Quarter
Dec 28
Full
Jan 4
Last Quarter
Jan 11
New
Jan 18
First Quarter

Hourly Weather History & Observations

Time (HST) Temp. Dew Point Humidity Pressure Visibility Wind Dir Wind Speed Gust Speed Precip Events Conditions
12:08 AM 68.0 °F 60.8 °F 78% 30.04 in 10.0 mi Variable 4.6 mph - N/A   Mostly Cloudy
12:09 AM 68.0 °F 60.8 °F 78% 30.04 in 10.0 mi SE 5.8 mph - N/A   Mostly Cloudy
12:10 AM 68.0 °F 60.8 °F 78% 30.04 in 10.0 mi Variable 6.9 mph - N/A   Mostly Cloudy
12:18 AM 68.0 °F 60.8 °F 78% 30.04 in 10.0 mi SE 5.8 mph - N/A   Light Drizzle
12:20 AM 68.0 °F 62.6 °F 83% 30.04 in 10.0 mi SE 8.1 mph - N/A   Overcast
12:28 AM 68.0 °F 62.6 °F 83% 30.04 in 10.0 mi Variable 3.5 mph - N/A   Overcast
12:29 AM 68.0 °F 62.6 °F 83% 30.04 in 10.0 mi SSE 4.6 mph - N/A   Overcast
12:32 AM 68.0 °F 62.6 °F 83% 30.04 in 10.0 mi Variable 6.9 mph - N/A   Light Drizzle
12:41 AM 68.0 °F 62.6 °F 83% 30.04 in 10.0 mi ESE 6.9 mph - N/A   Light Drizzle
12:44 AM 68.0 °F 62.6 °F 83% 30.04 in 10.0 mi ESE 5.8 mph - N/A   Mostly Cloudy
12:47 AM 68.0 °F 62.6 °F 83% 30.04 in 10.0 mi SSE 5.8 mph - N/A   Mostly Cloudy
12:55 AM 68.9 °F 61.9 °F 78% 30.03 in 10.0 mi South 4.6 mph - 0.00 in   Mostly Cloudy
1:03 AM 69.8 °F 62.6 °F 78% 30.03 in 10.0 mi East 6.9 mph - N/A   Mostly Cloudy
1:04 AM 69.8 °F 62.6 °F 78% 30.03 in 10.0 mi East 8.1 mph - N/A   Mostly Cloudy
1:06 AM 69.8 °F 62.6 °F 78% 30.04 in 10.0 mi ESE 9.2 mph - N/A   Mostly Cloudy
1:09 AM 69.8 °F 62.6 °F 78% 30.04 in 10.0 mi SE 4.6 mph - N/A   Mostly Cloudy
1:39 AM 69.8 °F 62.6 °F 78% 30.04 in 10.0 mi ESE 5.8 mph - N/A   Overcast
1:40 AM 69.8 °F 62.6 °F 78% 30.04 in 10.0 mi Variable 3.5 mph - N/A   Overcast
1:42 AM 69.8 °F 62.6 °F 78% 30.03 in 10.0 mi ESE 11.5 mph - N/A   Overcast
1:46 AM 69.8 °F 62.6 °F 78% 30.03 in 10.0 mi Variable 6.9 mph - N/A   Overcast
1:47 AM 69.8 °F 62.6 °F 78% 30.03 in 10.0 mi SE 5.8 mph - N/A   Overcast
1:48 AM 69.8 °F 62.6 °F 78% 30.03 in 10.0 mi SE 4.6 mph - N/A   Overcast
1:55 AM 69.1 °F 62.1 °F 78% 30.03 in 10.0 mi Calm Calm - N/A   Overcast
2:19 AM 69.8 °F 62.6 °F 78% 30.02 in 9.0 mi Calm Calm - N/A Rain Light Rain
2:33 AM 68.0 °F 62.6 °F 83% 30.02 in 8.0 mi ESE 9.2 mph 20.7 mph N/A Rain Light Rain
2:35 AM 68.0 °F 62.6 °F 83% 30.02 in 9.0 mi ESE 8.1 mph 20.7 mph N/A   Scattered Clouds
2:39 AM 68.0 °F 62.6 °F 83% 30.02 in 10.0 mi East 8.1 mph - N/A   Light Drizzle
2:40 AM 68.0 °F 62.6 °F 83% 30.02 in 9.0 mi East 8.1 mph - N/A   Light Drizzle
2:46 AM 68.0 °F 62.6 °F 83% 30.02 in 7.0 mi East 11.5 mph - N/A Rain Light Rain
2:53 AM 68.0 °F 62.6 °F 83% 30.02 in 10.0 mi East 11.5 mph - N/A   Scattered Clouds
2:55 AM 67.5 °F 62.6 °F 84% 30.02 in 10.0 mi East 8.1 mph - 0.01 in   Mostly Cloudy
3:14 AM 68.0 °F 62.6 °F 83% 30.01 in 10.0 mi NNE 4.6 mph - N/A   Light Drizzle
3:26 AM 68.0 °F 62.6 °F 83% 30.01 in 10.0 mi West 3.5 mph - N/A   Scattered Clouds
3:55 AM 66.6 °F 62.8 °F 88% 30.01 in 10.0 mi NW 4.6 mph - 0.00 in   Scattered Clouds
3:56 AM 66.2 °F 62.6 °F 88% 30.01 in 10.0 mi NW 5.8 mph - N/A   Light Drizzle
4:08 AM 66.2 °F 62.6 °F 88% 30.01 in 10.0 mi WNW 4.6 mph - N/A   Scattered Clouds
4:55 AM 66.2 °F 62.1 °F 86% 30.01 in 10.0 mi WNW 6.9 mph - 0.00 in   Scattered Clouds
5:26 AM 66.2 °F 60.8 °F 83% 30.02 in 10.0 mi NW 3.5 mph - N/A   Mostly Cloudy
5:35 AM 66.2 °F 62.6 °F 88% 30.02 in 10.0 mi Calm Calm - N/A   Mostly Cloudy
5:36 AM 66.2 °F 62.6 °F 88% 30.02 in 10.0 mi Calm Calm - N/A   Mostly Cloudy
5:40 AM 66.2 °F 60.8 °F 83% 30.02 in 10.0 mi NNE 3.5 mph - N/A   Mostly Cloudy
5:55 AM 66.6 °F 61.2 °F 83% 30.02 in 10.0 mi NE 8.1 mph - N/A   Scattered Clouds
6:37 AM 66.2 °F 60.8 °F 83% 30.02 in 10.0 mi North 5.8 mph - N/A   Light Drizzle
6:53 AM 66.2 °F 62.6 °F 88% 30.03 in 10.0 mi Calm Calm - N/A   Partly Cloudy
6:55 AM 65.8 °F 61.5 °F 86% 30.03 in 10.0 mi WSW 3.5 mph - 0.00 in   Partly Cloudy
7:03 AM 66.2 °F 62.6 °F 88% 30.03 in 9.0 mi Variable 3.5 mph - N/A   Light Drizzle
7:18 AM 66.2 °F 62.6 °F 88% 30.03 in 10.0 mi Calm Calm - N/A   Clear
7:55 AM 67.3 °F 61.9 °F 83% 30.04 in 10.0 mi NNE 8.1 mph - 0.00 in   Partly Cloudy
8:04 AM 68.0 °F 62.6 °F 83% 30.05 in 10.0 mi Calm Calm - N/A   Light Drizzle
8:18 AM 68.0 °F 62.6 °F 83% 30.05 in 8.0 mi North 3.5 mph - N/A   Light Drizzle
8:26 AM 68.0 °F 62.6 °F 83% 30.05 in 9.0 mi Variable 4.6 mph - N/A   Light Drizzle
8:43 AM 68.0 °F 62.6 °F 83% 30.04 in 10.0 mi Variable 5.8 mph - N/A   Mostly Cloudy
8:45 AM 68.0 °F 62.6 °F 83% 30.04 in 10.0 mi NE 4.6 mph - N/A   Light Drizzle
8:55 AM 67.8 °F 62.6 °F 83% 30.05 in 10.0 mi Calm Calm - 0.00 in   Light Drizzle
9:17 AM 69.8 °F 62.6 °F 78% 30.05 in 10.0 mi NE 4.6 mph - N/A   Mostly Cloudy
9:51 AM 69.8 °F 62.6 °F 78% 30.06 in 10.0 mi Variable 3.5 mph - N/A   Light Drizzle
9:55 AM 69.6 °F 62.1 °F 77% 30.06 in 10.0 mi Variable 6.9 mph - 0.00 in   Light Drizzle
10:02 AM 69.8 °F 62.6 °F 78% 30.06 in 10.0 mi North 3.5 mph - N/A   Overcast
10:55 AM 70.5 °F 61.3 °F 73% 30.06 in 10.0 mi NE 10.4 mph - 0.00 in   Overcast
11:11 AM 71.6 °F 62.6 °F 73% 30.05 in 9.0 mi NE 11.5 mph - N/A   Light Drizzle
11:20 AM 69.8 °F 62.6 °F 78% 30.05 in 9.0 mi NNE 6.9 mph - N/A   Light Drizzle
11:21 AM 69.8 °F 62.6 °F 78% 30.05 in 9.0 mi Variable 6.9 mph - N/A   Light Drizzle
11:23 AM 69.8 °F 62.6 °F 78% 30.05 in 8.0 mi NE 8.1 mph - N/A   Light Drizzle
11:30 AM 68.0 °F 62.6 °F 83% 30.05 in 7.0 mi Variable 3.5 mph - N/A   Light Drizzle
11:33 AM 68.0 °F 62.6 °F 83% 30.05 in 8.0 mi North 4.6 mph - N/A   Light Drizzle
11:55 AM 69.8 °F 63.9 °F 81% 30.02 in 9.0 mi NE 17.3 mph 24.2 mph 0.00 in   Light Drizzle
12:19 PM 68.0 °F 64.4 °F 88% 30.03 in 4.0 mi NNE 11.5 mph - N/A Rain Light Rain
12:33 PM 69.8 °F 64.4 °F 83% 30.02 in 8.0 mi NNE 8.1 mph - N/A Rain Light Rain
12:41 PM 68.0 °F 64.4 °F 88% 30.02 in 10.0 mi NNE 9.2 mph - N/A   Scattered Clouds
12:44 PM 68.0 °F 64.4 °F 88% 30.02 in 10.0 mi NE 13.8 mph 17.3 mph N/A   Light Drizzle
12:49 PM 68.0 °F 64.4 °F 88% 30.01 in 9.0 mi NE 13.8 mph - N/A   Light Drizzle
12:52 PM 68.0 °F 64.4 °F 88% 30.01 in 8.0 mi NE 9.2 mph - N/A   Light Drizzle
12:55 PM 68.4 °F 63.7 °F 85% 30.01 in 7.0 mi NE 13.8 mph - 0.01 in   Light Drizzle
1:07 PM 68.0 °F 62.6 °F 83% 30.01 in 7.0 mi NE 9.2 mph - N/A   Light Drizzle
1:12 PM 68.0 °F 62.6 °F 83% 30.01 in 9.0 mi NE 8.1 mph - N/A   Light Drizzle
1:25 PM 68.0 °F 62.6 °F 83% 30.00 in 10.0 mi NNE 10.4 mph - N/A   Mostly Cloudy
1:28 PM 68.0 °F 62.6 °F 83% 30.00 in 10.0 mi ENE 13.8 mph 18.4 mph N/A   Light Drizzle
1:49 PM 69.8 °F 62.6 °F 78% 29.99 in 10.0 mi ENE 15.0 mph - N/A   Light Drizzle
1:51 PM 69.8 °F 62.6 °F 78% 29.99 in 10.0 mi ENE 15.0 mph - N/A   Mostly Cloudy
1:55 PM 69.4 °F 62.6 °F 79% 29.99 in 10.0 mi ENE 15.0 mph - 0.00 in   Mostly Cloudy
2:34 PM 69.8 °F 62.6 °F 78% 29.98 in 10.0 mi NNE 9.2 mph - N/A   Overcast
2:35 PM 69.8 °F 62.6 °F 78% 29.98 in 10.0 mi NNE 9.2 mph - N/A   Overcast
2:44 PM 69.8 °F 62.6 °F 78% 29.98 in 10.0 mi NNE 8.1 mph - N/A   Overcast
2:55 PM 69.3 °F 61.3 °F 76% 29.98 in 10.0 mi ENE 12.7 mph - N/A   Overcast
3:34 PM 69.8 °F 62.6 °F 78% 29.98 in 10.0 mi East 3.5 mph - N/A   Overcast
3:35 PM 69.8 °F 62.6 °F 78% 29.98 in 10.0 mi Calm Calm - N/A   Overcast
3:36 PM 69.8 °F 62.6 °F 78% 29.98 in 10.0 mi Calm Calm - N/A   Overcast
3:37 PM 69.8 °F 60.8 °F 73% 29.98 in 10.0 mi Calm Calm - N/A   Overcast
3:40 PM 69.8 °F 60.8 °F 73% 29.98 in 10.0 mi Calm Calm - N/A   Light Drizzle
3:55 PM 68.5 °F 61.9 °F 79% 29.98 in 10.0 mi Variable 3.5 mph - 0.00 in   Light Drizzle
4:03 PM 68.0 °F 62.6 °F 83% 29.98 in 6.0 mi North 5.8 mph - N/A Rain Light Rain
4:09 PM 68.0 °F 62.6 °F 83% 29.98 in 4.0 mi Variable 4.6 mph - N/A Rain Light Rain
4:15 PM 68.0 °F 62.6 °F 83% 29.99 in 3.0 mi Calm Calm - N/A Rain Light Rain
4:55 PM 67.1 °F 62.8 °F 86% 29.99 in 6.0 mi North 4.6 mph - 0.04 in Rain Light Rain
5:20 PM 66.2 °F 62.6 °F 88% 30.00 in 2.5 mi ENE 5.8 mph - N/A Rain Rain
5:23 PM 66.2 °F 62.6 °F 88% 30.00 in 3.0 mi NNE 3.5 mph - N/A Rain Rain
5:55 PM 66.7 °F 63.3 °F 89% 30.01 in 6.0 mi ENE 5.8 mph - 0.04 in Rain Light Rain
6:16 PM 66.2 °F 62.6 °F 88% 30.02 in 7.0 mi North 3.5 mph - N/A Rain Light Rain
6:22 PM 66.2 °F 62.6 °F 88% 30.02 in 6.0 mi NNE 3.5 mph - N/A Rain Light Rain
6:50 PM 66.2 °F 62.6 °F 88% 30.03 in 10.0 mi Calm Calm - N/A   Mostly Cloudy
6:54 PM 66.2 °F 62.6 °F 88% 30.03 in 10.0 mi Calm Calm - N/A   Light Drizzle
6:55 PM 66.2 °F 62.2 °F 87% 30.03 in 10.0 mi Calm Calm - 0.03 in   Light Drizzle
7:55 PM 66.4 °F 62.2 °F 86% 30.05 in 10.0 mi North 8.1 mph - 0.02 in Rain Light Rain
8:45 PM 66.2 °F 62.6 °F 88% 30.06 in 10.0 mi Calm Calm - N/A   Partly Cloudy
8:47 PM 66.2 °F 62.6 °F 88% 30.06 in 10.0 mi Calm Calm - N/A   Light Drizzle
8:55 PM 65.3 °F 62.6 °F 91% 30.07 in 10.0 mi Calm Calm - 0.00 in   Light Drizzle
8:57 PM 66.2 °F 62.6 °F 88% 30.07 in 10.0 mi Calm Calm - N/A   Partly Cloudy
8:59 PM 66.2 °F 62.6 °F 88% 30.06 in 10.0 mi NE 5.8 mph - N/A   Light Drizzle
9:29 PM 66.2 °F 60.8 °F 83% 30.06 in 10.0 mi NE 6.9 mph - N/A   Clear
9:42 PM 66.2 °F 60.8 °F 83% 30.07 in 9.0 mi NE 8.1 mph - N/A Rain Light Rain
9:55 PM 65.8 °F 61.7 °F 86% 30.07 in 9.0 mi NNE 6.9 mph - 0.01 in Rain Light Rain
10:06 PM 66.2 °F 60.8 °F 83% 30.07 in 10.0 mi NNE 6.9 mph - N/A   Partly Cloudy
10:55 PM 65.7 °F 59.7 °F 81% 30.06 in 10.0 mi Variable 4.6 mph - 0.00 in   Clear
11:55 PM 66.0 °F 59.4 °F 79% 30.05 in 10.0 mi NE 6.9 mph - N/A   Clear